Change the Weather History Date:

Monday, December 31, 2012

  Actual Average Record
Temperature  
Mean Temperature 43 °F 44 °F  
Max Temperature 53 °F 54 °F 76 °F (1965)
Min Temperature 33 °F 34 °F 0 °F (1983)
Degree Days  
Heating Degree Days 22 21  
Month to date heating degree days 407 577  
Since 1 July heating degree days 893 1020  
Moisture  
Dew Point 33 °F    
Average Humidity 60    
Maximum Humidity 75    
Minimum Humidity 44    
Precipitation  
Precipitation 0.00 in 0.15 in 4.80 in (1973)
Month to date precipitation 7.76 4.80  
Year to date precipitation 55.71 54.68  
Snow  
Snow 0.00 in - - ()
Month to date snowfall 0.0  
Since 1 July snowfall 0.0  
Snow Depth 0.00 in    
Sea Level Pressure  
Sea Level Pressure 30.27 in    
Wind  
Wind Speed 3 mph (SSE)    
Max Wind Speed 10 mph    
Max Gust Speed 15 mph    
Visibility 10 miles    
Events      
T = Trace of Precipitation, MM = Missing Value Source: NWS Daily Summary

Daily Weather History Graph

Daily Weather History Graph

Search for Another Location

Airport or City:

Trip Planner

Search our weather history database for the weather conditions in past years. The results will help you decide how hot, cold, wet, or windy it might be!

Date:

Astronomy

Dec. 31, 2012 Rise Set
Actual Time 6:50 AM CST 4:50 PM CST
Civil Twilight 6:23 AM CST 5:17 PM CST
Nautical Twilight 5:52 AM CST 5:48 PM CST
Astronomical Twilight 5:22 AM CST 6:18 PM CST
Moon 8:09 PM CST (12/31) 8:41 AM CST (12/31)
Length of Visible Light 10h 54m
Length of Day
10h 00m
Waning Gibbous, 90% of the Moon is Illuminated
Dec 31
Waning Gibbous
Jan 4
Last Quarter
Jan 11
New
Jan 18
First Quarter
Jan 26
Full

Hourly Weather History & Observations

Time (CST) Temp. Windchill Dew Point Humidity Pressure Visibility Wind Dir Wind Speed Gust Speed Precip Events Conditions
12:53 AM 37.0 °F - 28.9 °F 73% 30.36 in 10.0 mi Calm Calm - N/A   Clear
1:53 AM 37.0 °F - 28.0 °F 70% 30.37 in 6.0 mi Calm Calm - N/A   Haze
2:53 AM 36.0 °F - 27.0 °F 70% 30.38 in 10.0 mi Calm Calm - N/A   Clear
3:53 AM 36.0 °F - 27.0 °F 70% 30.35 in 10.0 mi Calm Calm - N/A   Clear
4:53 AM 37.0 °F - 28.0 °F 70% 30.37 in 10.0 mi Calm Calm - N/A   Clear
6:53 AM 34.0 °F - 27.0 °F 75% 30.36 in 10.0 mi Calm Calm - N/A   Clear
7:53 AM 37.0 °F 34.5 °F 27.0 °F 67% 30.38 in 9.0 mi ESE 3.5 mph - N/A   Partly Cloudy
8:53 AM 39.9 °F 35.8 °F 28.9 °F 65% 30.38 in 10.0 mi ESE 5.8 mph - N/A   Overcast
9:53 AM 46.0 °F 43.9 °F 30.0 °F 54% 30.37 in 10.0 mi SSE 4.6 mph - N/A   Partly Cloudy
10:53 AM 48.9 °F - 28.9 °F 46% 30.34 in 10.0 mi South 8.1 mph - N/A   Overcast
11:53 AM 50.0 °F - 30.0 °F 46% 30.31 in 10.0 mi South 6.9 mph - N/A   Overcast
12:53 PM 51.1 °F - 30.0 °F 44% 30.27 in 10.0 mi SSE 6.9 mph - N/A   Overcast
1:53 PM 52.0 °F - 33.1 °F 49% 30.24 in 10.0 mi South 6.9 mph - N/A   Overcast
2:53 PM 53.1 °F - 35.1 °F 50% 30.23 in 10.0 mi SE 3.5 mph - N/A   Overcast
3:53 PM 52.0 °F - 37.0 °F 57% 30.23 in 10.0 mi Calm Calm - N/A   Overcast
4:53 PM 52.0 °F - 37.0 °F 57% 30.22 in 10.0 mi Calm Calm - N/A   Overcast
5:53 PM 50.0 °F - 37.9 °F 63% 30.20 in 10.0 mi Calm Calm - N/A   Overcast
6:53 PM 50.0 °F - 37.9 °F 63% 30.18 in 10.0 mi SE 3.5 mph - N/A   Overcast
7:53 PM 50.0 °F - 37.9 °F 63% 30.18 in 10.0 mi SE 3.5 mph - N/A   Scattered Clouds
8:53 PM 48.9 °F - 37.9 °F 66% 30.15 in 10.0 mi SE 4.6 mph - N/A   Clear
9:53 PM 50.0 °F - 37.9 °F 63% 30.14 in 10.0 mi SSE 4.6 mph - N/A   Mostly Cloudy
10:53 PM 51.1 °F - 39.0 °F 63% 30.10 in 10.0 mi SE 6.9 mph - N/A   Clear
11:53 PM 52.0 °F - 43.0 °F 71% 30.10 in 10.0 mi South 8.1 mph - N/A   Clear